Weather History for Superior, WI

Change the Weather History Date:

Tuesday, June 25, 2013

  Actual Average Record
Temperature  
Mean Temperature 70 °F -  
Max Temperature 81 °F 70 °F 94 °F (1980)
Min Temperature 59 °F 51 °F 36 °F (1957)
Cooling Degree Days 5    
Growing Degree Days 20 (Base 50)    
Moisture  
Dew Point 63 °F    
Average Humidity 82    
Maximum Humidity 100    
Minimum Humidity 61    
Precipitation  
Precipitation 0.00 in - - ()
Sea Level Pressure  
Sea Level Pressure 29.79 in    
Wind  
Wind Speed 4 mph (East)    
Max Wind Speed 10 mph    
Max Gust Speed -    
Visibility 9 miles    
Events Fog    
Averages and records for this station are not official NWS values.
T = Trace of Precipitation, MM = Missing Value Source: NWS Daily Summary

Daily Weather History Graph

Daily Weather History Graph

Search for Another Location

Airport:

Trip Planner

Search our weather history database for the weather conditions in past years. The results will help you decide how hot, cold, wet, or windy it might be!

Date:

Astronomy

Jun. 25, 2013 Rise Set
Actual Time 5:15 AM CDT 9:06 PM CDT
Civil Twilight 4:36 AM CDT 9:45 PM CDT
Nautical Twilight 3:42 AM CDT 10:39 PM CDT
Astronomical Twilight 2:24 AM CDT 11:57 PM CDT
Moon 10:38 PM CDT (6/25) 8:06 AM CDT (6/25)
Length of Visible Light 17h 09m
Length of Day
15h 50m
Waning Gibbous, 92% of the Moon is Illuminated
Jun 25
Waning Gibbous
Jun 29
Last Quarter
Jul 8
New
Jul 15
First Quarter
Jul 22
Full

Hourly Weather History & Observations

Time (CDT) Temp. Heat Index Dew Point Humidity Pressure Visibility Wind Dir Wind Speed Gust Speed Precip Events Conditions
12:15 AM 62.6 °F - 60.4 °F 93% 29.81 in 10.0 mi SW 5.8 mph - N/A   Clear
12:35 AM 64.9 °F - 61.5 °F 89% 29.81 in 10.0 mi WSW 5.8 mph - N/A   Clear
12:55 AM 64.6 °F - 61.7 °F 90% 29.81 in 10.0 mi WSW 4.6 mph - N/A   Clear
1:15 AM 63.3 °F - 60.8 °F 91% 29.81 in 10.0 mi Calm Calm - N/A   Clear
1:35 AM 63.0 °F - 61.2 °F 94% 29.80 in 10.0 mi Calm Calm - N/A   Clear
1:55 AM 62.6 °F - 60.8 °F 94% 29.81 in 10.0 mi SW 4.6 mph - N/A   Clear
2:15 AM 61.9 °F - 61.0 °F 97% 29.81 in 10.0 mi SW 5.8 mph - N/A   Clear
2:35 AM 63.7 °F - 62.6 °F 96% 29.81 in 10.0 mi WSW 5.8 mph - N/A   Clear
2:55 AM 63.1 °F - 62.2 °F 97% 29.82 in 10.0 mi WSW 3.5 mph - N/A   Clear
3:15 AM 62.6 °F - 61.9 °F 97% 29.81 in 10.0 mi Calm Calm - N/A   Clear
3:35 AM 60.8 °F - 60.1 °F 97% 29.81 in 2.5 mi Calm Calm - N/A   Clear
3:55 AM 61.0 °F - 60.8 °F 99% 29.81 in 0.5 mi Calm Calm - N/A Fog Fog
4:15 AM 60.3 °F - 60.1 °F 99% 29.82 in 0.8 mi SW 3.5 mph - N/A   Mist
4:35 AM 60.8 °F - 60.8 °F 100% 29.82 in 0.8 mi WSW 3.5 mph - N/A   Mist
4:55 AM 62.1 °F - 62.1 °F 100% 29.83 in 3.0 mi WSW 3.5 mph - N/A   Clear
5:15 AM 60.3 °F - 60.1 °F 99% 29.83 in 0.2 mi Calm Calm - N/A Fog Fog
5:35 AM 60.6 °F - 60.6 °F 100% 29.82 in 0.2 mi Calm Calm - N/A Fog Fog
5:55 AM 59.7 °F - 59.7 °F 100% 29.82 in 0.2 mi Calm Calm - N/A Fog Fog
6:15 AM 59.4 °F - 59.4 °F 100% 29.82 in 0.5 mi Calm Calm - N/A Fog Fog
6:35 AM 62.6 °F - 62.6 °F 100% 29.81 in 2.5 mi Calm Calm - N/A   Scattered Clouds
6:55 AM 64.4 °F - 64.4 °F 100% 29.81 in 7.0 mi Calm Calm - N/A   Clear
7:15 AM 65.5 °F - 65.3 °F 99% 29.81 in 10.0 mi Calm Calm - N/A   Clear
7:35 AM 67.1 °F - 65.3 °F 94% 29.81 in 10.0 mi SW 3.5 mph - N/A   Clear
7:55 AM 68.7 °F - 65.7 °F 90% 29.81 in 10.0 mi SSW 5.8 mph - N/A   Clear
8:15 AM 70.2 °F - 65.1 °F 84% 29.81 in 10.0 mi SW 6.9 mph - N/A   Clear
8:35 AM 71.2 °F - 65.7 °F 82% 29.81 in 10.0 mi SSW 3.5 mph - N/A   Clear
8:55 AM 72.5 °F - 65.8 °F 80% 29.82 in 10.0 mi Calm Calm - N/A   Clear
9:15 AM 73.8 °F - 65.8 °F 76% 29.81 in 10.0 mi SSW 4.6 mph - N/A   Clear
9:35 AM 75.0 °F - 65.7 °F 73% 29.81 in 10.0 mi Calm Calm - N/A   Clear
9:55 AM 76.3 °F - 64.9 °F 68% 29.81 in 10.0 mi Calm Calm - N/A   Clear
10:15 AM 76.6 °F - 65.3 °F 68% 29.80 in 10.0 mi Calm Calm - N/A   Clear
10:35 AM 77.5 °F - 65.5 °F 66% 29.80 in 10.0 mi Calm Calm - N/A   Clear
10:55 AM 78.8 °F - 65.8 °F 64% 29.80 in 10.0 mi Calm Calm - N/A   Clear
11:15 AM 79.9 °F - 66.7 °F 64% 29.80 in 10.0 mi Calm Calm - N/A   Clear
11:35 AM 81.1 °F 83.5 °F 67.1 °F 62% 29.80 in 10.0 mi North 3.5 mph - N/A   Clear
11:55 AM 80.6 °F 83.2 °F 67.6 °F 65% 29.80 in 10.0 mi NE 5.8 mph - N/A   Clear
12:15 PM 80.1 °F 82.3 °F 66.7 °F 64% 29.79 in 10.0 mi ENE 6.9 mph - N/A   Clear
12:35 PM 80.6 °F 82.9 °F 66.7 °F 63% 29.79 in 10.0 mi NE 6.9 mph - N/A   Clear
12:55 PM 80.8 °F 83.2 °F 67.1 °F 63% 29.79 in 10.0 mi East 6.9 mph - N/A   Clear
1:15 PM 78.6 °F - 66.6 °F 66% 29.79 in 10.0 mi ENE 8.1 mph - N/A   Clear
1:35 PM 79.3 °F - 66.7 °F 65% 29.79 in 10.0 mi ENE 8.1 mph - N/A   Clear
1:55 PM 80.6 °F 83.2 °F 67.6 °F 65% 29.79 in 10.0 mi East 4.6 mph - N/A   Clear
2:15 PM 81.1 °F 83.7 °F 67.6 °F 63% 29.79 in 10.0 mi ENE 5.8 mph - N/A   Clear
2:35 PM 81.5 °F 84.1 °F 67.5 °F 62% 29.78 in 10.0 mi ENE 8.1 mph - N/A   Clear
2:55 PM 80.2 °F 82.2 °F 65.8 °F 61% 29.78 in 10.0 mi ENE 8.1 mph - N/A   Clear
3:15 PM 81.7 °F 84.2 °F 67.3 °F 61% 29.77 in 10.0 mi East 10.4 mph - N/A   Clear
3:35 PM 81.7 °F 84.3 °F 67.6 °F 62% 29.77 in 10.0 mi East 10.4 mph - N/A   Clear
3:55 PM 80.8 °F 83.3 °F 67.5 °F 64% 29.77 in 10.0 mi East 9.2 mph - N/A   Clear
4:15 PM 81.1 °F 83.4 °F 66.7 °F 61% 29.77 in 10.0 mi ENE 8.1 mph - N/A   Clear
4:35 PM 80.6 °F 82.9 °F 67.1 °F 63% 29.77 in 10.0 mi East 10.4 mph - N/A   Clear
4:55 PM 78.8 °F - 65.7 °F 64% 29.77 in 10.0 mi East 10.4 mph - N/A   Clear
5:15 PM 79.0 °F - 65.5 °F 63% 29.76 in 10.0 mi East 9.2 mph - N/A   Clear
5:35 PM 76.6 °F - 64.6 °F 66% 29.77 in 10.0 mi ENE 8.1 mph - N/A   Clear
5:55 PM 75.6 °F - 64.6 °F 69% 29.76 in 10.0 mi ENE 5.8 mph - N/A   Clear
6:15 PM 74.5 °F - 63.9 °F 69% 29.75 in 10.0 mi ENE 4.6 mph - N/A   Clear
6:35 PM 73.8 °F - 63.9 °F 71% 29.76 in 10.0 mi NE 5.8 mph - N/A   Clear
6:55 PM 72.1 °F - 63.3 °F 74% 29.76 in 10.0 mi NNE 4.6 mph - N/A   Clear
7:15 PM 70.9 °F - 62.8 °F 75% 29.75 in 10.0 mi NE 5.8 mph - N/A   Clear
7:35 PM 69.1 °F - 62.2 °F 79% 29.74 in 10.0 mi NNE 5.8 mph - N/A   Clear
7:55 PM 66.9 °F - 61.7 °F 83% 29.75 in 10.0 mi NE 3.5 mph - N/A   Clear
8:15 PM 66.2 °F - 61.9 °F 86% 29.75 in 10.0 mi Calm Calm - N/A   Clear
8:35 PM 65.8 °F - 61.7 °F 86% 29.75 in 10.0 mi NE 3.5 mph - N/A   Clear
8:55 PM 65.7 °F - 61.9 °F 88% 29.74 in 10.0 mi Calm Calm - N/A   Clear
9:15 PM 64.9 °F - 61.3 °F 88% 29.74 in 10.0 mi Calm Calm - N/A   Scattered Clouds
9:35 PM 63.9 °F - 60.8 °F 90% 29.74 in 10.0 mi Calm Calm - N/A   Scattered Clouds
9:55 PM 61.9 °F - 59.9 °F 93% 29.74 in 10.0 mi Calm Calm - N/A   Clear
10:15 PM 60.8 °F - 59.5 °F 96% 29.74 in 10.0 mi Calm Calm - N/A   Clear
10:35 PM 60.3 °F - 59.2 °F 96% 29.74 in 7.0 mi Calm Calm - N/A   Clear
10:55 PM 60.3 °F - 59.5 °F 97% 29.74 in 7.0 mi Calm Calm - N/A   Clear
11:15 PM 60.3 °F - 59.4 °F 97% 29.75 in 7.0 mi Calm Calm - N/A   Clear
11:35 PM 59.5 °F - 58.6 °F 97% 29.75 in 10.0 mi Calm Calm - N/A   Clear
11:55 PM 59.0 °F - 57.9 °F 96% 29.75 in 10.0 mi Calm Calm - N/A   Clear